, FL

(GMT )
Crestview

Weather History for KEGI - December, 2012

Change the Weather History Date:

Saturday, December 15, 2012

  Actual Average Record
Temperature  
Mean Temperature 55 °F -  
Max Temperature 68 °F - - ()
Min Temperature 42 °F - - ()
Degree Days  
Heating Degree Days 10    
Growing Degree Days 5 (Base 50)    
Moisture  
Dew Point 49 °F    
Average Humidity 91    
Maximum Humidity 100    
Minimum Humidity 64    
Precipitation  
Precipitation 0.00 in - - ()
Sea Level Pressure  
Sea Level Pressure 30.12 in    
Wind  
Wind Speed 3 mph (East)    
Max Wind Speed 8 mph    
Max Gust Speed -    
Visibility 7 miles    
Events      
Averages and records for this station are not official NWS values.
T = Trace of Precipitation, MM = Missing Value Source: NWS Daily Summary

Daily Weather History Graph

Daily Weather History Graph

Search for Another Location

Airport or City:

Trip Planner

Search our weather history database for the weather conditions in past years. The results will help you decide how hot, cold, wet, or windy it might be!

Date:

Astronomy

Dec. 15, 2012 Rise Set
Actual Time 6:36 AM CST 4:46 PM CST
Civil Twilight 6:09 AM CST 5:13 PM CST
Nautical Twilight 5:39 AM CST 5:43 PM CST
Astronomical Twilight 5:10 AM CST 6:12 PM CST
Moon 8:35 AM CST (12/15) 7:41 PM CST (12/15)
Length of Visible Light 11h 03m
Length of Day
10h 10m
Waxing Crescent, 8% of the Moon is Illuminated
Dec 15
Waxing Crescent
Dec 19
First Quarter
Dec 28
Full
Jan 4
Last Quarter
Jan 11
New

Hourly Weather History & Observations

Time (CST) Temp. Windchill Dew Point Humidity Pressure Visibility Wind Dir Wind Speed Gust Speed Precip Events Conditions
12:25 AM 42.8 °F 41.1 °F 42.8 °F 100% 30.17 in 0.8 mi NNW 3.5 mph - N/A   Mist
12:32 AM 44.6 °F - 42.8 °F 93% 30.17 in 1.0 mi Calm Calm - N/A   Mist
12:37 AM 44.6 °F - 42.8 °F 93% 30.17 in 0.8 mi Calm Calm - N/A   Mist
12:55 AM 43.7 °F - 43.5 °F 99% 30.16 in 0.8 mi Calm Calm - N/A   Mist
1:04 AM 44.6 °F - 42.8 °F 93% 30.16 in 1.0 mi Calm Calm - N/A   Mist
1:15 AM 44.6 °F - 42.8 °F 93% 30.15 in 1.2 mi Calm Calm - N/A   Mostly Cloudy
1:18 AM 44.6 °F - 42.8 °F 93% 30.15 in 1.5 mi Calm Calm - N/A   Mostly Cloudy
1:21 AM 44.6 °F 43.1 °F 42.8 °F 93% 30.16 in 2.0 mi NE 3.5 mph - N/A   Mostly Cloudy
1:23 AM 44.6 °F 43.1 °F 42.8 °F 93% 30.15 in 2.5 mi NE 3.5 mph - N/A   Mostly Cloudy
1:25 AM 44.6 °F 42.2 °F 42.8 °F 93% 30.15 in 3.0 mi NE 4.6 mph - N/A   Scattered Clouds
1:29 AM 44.6 °F 42.2 °F 42.8 °F 93% 30.15 in 2.5 mi NNE 4.6 mph - N/A   Scattered Clouds
1:35 AM 44.6 °F 43.1 °F 42.8 °F 93% 30.16 in 3.0 mi North 3.5 mph - N/A   Scattered Clouds
1:51 AM 44.6 °F 42.2 °F 42.8 °F 93% 30.15 in 2.5 mi ENE 4.6 mph - N/A   Scattered Clouds
1:54 AM 44.6 °F 42.2 °F 42.8 °F 93% 30.15 in 1.8 mi ENE 4.6 mph - N/A   Scattered Clouds
1:55 AM 43.9 °F 41.3 °F 43.7 °F 99% 30.15 in 2.0 mi NE 4.6 mph - N/A   Scattered Clouds
1:57 AM 44.6 °F 43.1 °F 42.8 °F 93% 30.16 in 1.2 mi NNE 3.5 mph - N/A   Scattered Clouds
2:02 AM 44.6 °F 43.1 °F 42.8 °F 93% 30.17 in 1.5 mi North 3.5 mph - N/A   Scattered Clouds
2:06 AM 44.6 °F 43.1 °F 42.8 °F 93% 30.17 in 2.0 mi North 3.5 mph - N/A   Mostly Cloudy
2:07 AM 44.6 °F 43.1 °F 42.8 °F 93% 30.17 in 2.5 mi North 3.5 mph - N/A   Mostly Cloudy
2:09 AM 44.6 °F 43.1 °F 42.8 °F 93% 30.17 in 3.0 mi North 3.5 mph - N/A   Mostly Cloudy
2:31 AM 44.6 °F 42.2 °F 44.6 °F 100% 30.15 in 3.0 mi NE 4.6 mph - N/A   Scattered Clouds
2:32 AM 44.6 °F 42.2 °F 44.6 °F 100% 30.15 in 2.5 mi NE 4.6 mph - N/A   Scattered Clouds
2:37 AM 44.6 °F 43.1 °F 44.6 °F 100% 30.14 in 2.0 mi NE 3.5 mph - N/A   Scattered Clouds
2:44 AM 44.6 °F 43.1 °F 44.6 °F 100% 30.15 in 2.5 mi North 3.5 mph - N/A   Scattered Clouds
2:46 AM 44.6 °F 43.1 °F 44.6 °F 100% 30.15 in 3.0 mi NNE 3.5 mph - N/A   Scattered Clouds
2:52 AM 44.6 °F 43.1 °F 44.6 °F 100% 30.16 in 5.0 mi North 3.5 mph - N/A   Mostly Cloudy
2:55 AM 44.2 °F 42.7 °F 43.9 °F 99% 30.16 in 5.0 mi North 3.5 mph - N/A   Mostly Cloudy
3:23 AM 44.6 °F 43.1 °F 44.6 °F 100% 30.16 in 7.0 mi NNE 3.5 mph - N/A   Overcast
3:30 AM 44.6 °F 43.1 °F 44.6 °F 100% 30.16 in 6.0 mi ENE 3.5 mph - N/A   Overcast
3:52 AM 44.6 °F - 44.6 °F 100% 30.15 in 9.0 mi Calm Calm - N/A   Overcast
3:55 AM 45.0 °F - 44.8 °F 99% 30.15 in 9.0 mi Calm Calm - N/A   Overcast
4:07 AM 44.6 °F 43.1 °F 44.6 °F 100% 30.14 in 10.0 mi North 3.5 mph - N/A   Overcast
4:10 AM 44.6 °F 43.1 °F 44.6 °F 100% 30.15 in 10.0 mi North 3.5 mph - N/A   Mostly Cloudy
4:55 AM 45.0 °F 43.5 °F 44.8 °F 99% 30.13 in 6.0 mi ENE 3.5 mph - N/A   Partly Cloudy
5:15 AM 44.6 °F 42.2 °F 44.6 °F 100% 30.12 in 8.0 mi NE 4.6 mph - N/A   Scattered Clouds
5:55 AM 45.9 °F 44.6 °F 45.5 °F 99% 30.13 in 9.0 mi East 3.5 mph - N/A   Scattered Clouds
6:37 AM 46.4 °F - 46.4 °F 100% 30.17 in 7.0 mi Calm Calm - N/A   Overcast
6:55 AM 46.2 °F 44.1 °F 46.0 °F 99% 30.17 in 7.0 mi NE 4.6 mph - N/A   Overcast
7:54 AM 50.0 °F - 48.2 °F 94% 30.16 in 10.0 mi East 5.8 mph - N/A   Scattered Clouds
7:55 AM 49.6 °F - 48.6 °F 96% 30.16 in 10.0 mi Variable 4.6 mph - N/A   Mostly Cloudy
8:55 AM 55.4 °F - 50.2 °F 83% 30.17 in 10.0 mi East 6.9 mph - N/A   Clear
9:55 AM 60.1 °F - 52.2 °F 75% 30.17 in 10.0 mi ESE 4.6 mph - N/A   Clear
11:55 AM 64.0 °F - 54.0 °F 70% 30.13 in 10.0 mi SE 5.8 mph - N/A   Partly Cloudy
12:55 PM 66.2 °F - 54.7 °F 66% 30.09 in 10.0 mi ESE 5.8 mph - N/A   Clear
1:27 PM 66.2 °F - 55.4 °F 68% 30.07 in 10.0 mi SE 5.8 mph - N/A   Mostly Cloudy
1:55 PM 66.0 °F - 55.4 °F 69% 30.09 in 10.0 mi SSE 5.8 mph - N/A   Mostly Cloudy
2:28 PM 66.2 °F - 55.4 °F 68% 30.07 in 10.0 mi SE 6.9 mph - N/A   Mostly Cloudy
2:55 PM 66.9 °F - 56.1 °F 68% 30.09 in 10.0 mi South 6.9 mph - N/A   Mostly Cloudy
2:59 PM 66.2 °F - 55.4 °F 68% 30.09 in 10.0 mi SSW 6.9 mph - N/A   Mostly Cloudy
3:20 PM 68.0 °F - 55.4 °F 64% 30.08 in 10.0 mi SSE 8.1 mph - N/A   Scattered Clouds
3:55 PM 66.7 °F - 56.3 °F 69% 30.08 in 10.0 mi South 6.9 mph - N/A   Partly Cloudy
4:55 PM 62.4 °F - 56.1 °F 80% 30.06 in 10.0 mi SSE 6.9 mph - N/A   Clear
5:55 PM 60.4 °F - 56.3 °F 86% 30.06 in 10.0 mi SE 4.6 mph - N/A   Partly Cloudy
6:22 PM 60.8 °F - 57.2 °F 88% 30.08 in 10.0 mi SSE 5.8 mph - N/A   Mostly Cloudy
6:55 PM 61.5 °F - 56.8 °F 85% 30.07 in 10.0 mi SE 6.9 mph - N/A   Overcast
7:55 PM 62.1 °F - 57.4 °F 85% 30.06 in 10.0 mi SE 4.6 mph - N/A   Mostly Cloudy
8:03 PM 62.6 °F - 57.2 °F 82% 30.06 in 10.0 mi SE 4.6 mph - N/A   Mostly Cloudy
8:55 PM 58.5 °F - 56.8 °F 94% 30.08 in 10.0 mi Calm Calm - N/A   Clear
9:42 PM 59.0 °F - 59.0 °F 100% 30.08 in 10.0 mi SE 4.6 mph - N/A   Mostly Cloudy
9:55 PM 60.3 °F - 59.2 °F 96% 30.07 in 10.0 mi SE 5.8 mph - N/A   Mostly Cloudy
9:58 PM 60.8 °F - 59.0 °F 94% 30.07 in 10.0 mi SE 4.6 mph - N/A   Mostly Cloudy
10:00 PM 60.8 °F - 59.0 °F 94% 30.07 in 10.0 mi SE 4.6 mph - N/A   Scattered Clouds
10:01 PM 60.8 °F - 59.0 °F 94% 30.07 in 10.0 mi SE 4.6 mph - N/A   Mostly Cloudy
10:10 PM 60.8 °F - 59.0 °F 94% 30.06 in 10.0 mi SE 5.8 mph - N/A   Mostly Cloudy
10:31 PM 60.8 °F - 59.0 °F 94% 30.06 in 10.0 mi ESE 5.8 mph - N/A   Mostly Cloudy
10:40 PM 60.8 °F - 59.0 °F 94% 30.06 in 10.0 mi ESE 4.6 mph - N/A   Mostly Cloudy
10:55 PM 61.2 °F - 59.5 °F 94% 30.06 in 10.0 mi ESE 4.6 mph - N/A   Mostly Cloudy
11:10 PM 60.8 °F - 59.0 °F 94% 30.06 in 10.0 mi ESE 4.6 mph - N/A   Mostly Cloudy
11:55 PM 61.2 °F - 59.4 °F 94% 30.06 in 10.0 mi SE 4.6 mph - N/A   Mostly Cloudy